Weather History for Lordsburg, NM

Change the Weather History Date:

Monday, March 4, 2013

  Actual Average Record
Temperature  
Mean Temperature 57 °F -  
Max Temperature 73 °F 66 °F 73 °F (2013)
Min Temperature 39 °F 28 °F 35 °F (2014)
Degree Days  
Heating Degree Days 8    
Growing Degree Days 7 (Base 50)    
Moisture  
Dew Point 20 °F    
Average Humidity 23    
Maximum Humidity 52    
Minimum Humidity 9    
Precipitation  
Precipitation 0.00 in - - ()
Sea Level Pressure  
Sea Level Pressure 29.98 in    
Wind  
Wind Speed 11 mph (West)    
Max Wind Speed 30 mph    
Max Gust Speed 40 mph    
Visibility 10 miles    
Events      
Averages and records for this station are not official NWS values.
T = Trace of Precipitation, MM = Missing Value Source: NWS Daily Summary

Daily Weather History Graph

Daily Weather History Graph

Search for Another Location

Airport:

Trip Planner

Search our weather history database for the weather conditions in past years. The results will help you decide how hot, cold, wet, or windy it might be!

Date:

Astronomy

Mar. 04, 2013 Rise Set
Actual Time 6:38 AM MST 6:14 PM MST
Civil Twilight 6:13 AM MST 6:39 PM MST
Nautical Twilight 5:45 AM MST 7:07 PM MST
Astronomical Twilight 5:16 AM MST 7:36 PM MST
Moon 12:37 AM MST (3/4) 11:13 AM MST (3/4)
Length of Visible Light 12h 25m
Length of Day
11h 36m
Waning Gibbous, 51% of the Moon is Illuminated
Mar 4
Waning Gibbous
Mar 4
Last Quarter
Mar 11
New
Mar 19
First Quarter
Mar 27
Full

Hourly Weather History & Observations

Time (MST) Temp. Windchill Dew Point Humidity Pressure Visibility Wind Dir Wind Speed Gust Speed Precip Events Conditions
12:55 AM 60.8 °F - 17.6 °F 19% 29.98 in 10.0 mi WSW 6.9 mph - N/A   Mostly Cloudy
1:15 AM 60.8 °F - 17.6 °F 19% 29.98 in 10.0 mi West 8.1 mph - N/A   Mostly Cloudy
1:55 AM 53.6 °F - 17.6 °F 24% 29.97 in 10.0 mi NNW 4.6 mph - N/A   Mostly Cloudy
2:15 AM 57.2 °F - 17.6 °F 21% 29.96 in 10.0 mi West 9.2 mph - N/A   Mostly Cloudy
2:35 AM 60.8 °F - 15.8 °F 17% 29.96 in 10.0 mi WSW 10.4 mph - N/A   Mostly Cloudy
2:55 AM 59.0 °F - 15.8 °F 19% 29.96 in 10.0 mi West 10.4 mph - N/A   Scattered Clouds
3:15 AM 59.0 °F - 15.8 °F 19% 29.95 in 10.0 mi WSW 10.4 mph - N/A   Scattered Clouds
3:35 AM 59.0 °F - 15.8 °F 19% 29.94 in 10.0 mi WSW 9.2 mph - N/A   Scattered Clouds
3:55 AM 55.4 °F - 15.8 °F 21% 29.94 in 10.0 mi West 6.9 mph - N/A   Scattered Clouds
4:15 AM 53.6 °F - 15.8 °F 22% 29.94 in 10.0 mi West 5.8 mph - N/A   Mostly Cloudy
4:55 AM 55.4 °F - 15.8 °F 21% 29.95 in 10.0 mi West 9.2 mph - N/A   Mostly Cloudy
5:15 AM 57.2 °F - 15.8 °F 20% 29.95 in 10.0 mi WSW 6.9 mph - N/A   Overcast
5:35 AM 55.4 °F - 15.8 °F 21% 29.97 in 10.0 mi WSW 8.1 mph - N/A   Overcast
5:55 AM 55.4 °F - 15.8 °F 21% 29.96 in 10.0 mi West 8.1 mph - N/A   Overcast
6:15 AM 53.6 °F - 17.6 °F 24% 29.96 in 10.0 mi SW 5.8 mph - N/A   Mostly Cloudy
6:35 AM 57.2 °F - 15.8 °F 20% 29.97 in 10.0 mi SW 13.8 mph - N/A   Mostly Cloudy
6:55 AM 59.0 °F - 24.8 °F 27% 29.96 in 10.0 mi SW 18.4 mph - N/A   Overcast
7:15 AM 59.0 °F - 26.6 °F 29% 29.97 in 10.0 mi SW 11.5 mph - N/A   Mostly Cloudy
7:35 AM 59.0 °F - 26.6 °F 29% 29.97 in 10.0 mi WSW 6.9 mph - N/A   Overcast
7:55 AM 59.0 °F - 24.8 °F 27% 29.97 in 10.0 mi SW 6.9 mph - N/A   Mostly Cloudy
8:15 AM 62.6 °F - 23.0 °F 22% 29.97 in 10.0 mi North - - N/A   Mostly Cloudy
8:35 AM 64.4 °F - 12.2 °F 13% 29.97 in 10.0 mi West 9.2 mph - N/A   Mostly Cloudy
8:55 AM 66.2 °F - 10.4 °F 11% 29.97 in 10.0 mi West 13.8 mph - N/A   Mostly Cloudy
9:15 AM 64.4 °F - 8.6 °F 11% 29.96 in 10.0 mi West 11.5 mph 19.6 mph N/A   Overcast
9:35 AM 68.0 °F - 8.6 °F 10% 29.95 in 10.0 mi West 15.0 mph - N/A   Overcast
9:55 AM 69.8 °F - 8.6 °F 9% 29.94 in 10.0 mi West 19.6 mph - N/A   Scattered Clouds
10:15 AM 69.8 °F - 10.4 °F 10% 29.94 in 10.0 mi West 21.9 mph 26.5 mph N/A   Clear
10:35 AM 71.6 °F - 12.2 °F 10% 29.94 in 10.0 mi West 19.6 mph 24.2 mph N/A   Clear
10:55 AM 69.8 °F - 12.2 °F 11% 29.93 in 10.0 mi West 21.9 mph 31.1 mph N/A   Clear
11:15 AM 71.6 °F - 14.0 °F 11% 29.93 in 10.0 mi West 19.6 mph - N/A   Clear
11:55 AM 71.6 °F - 19.4 °F 14% 29.92 in 10.0 mi West 20.7 mph 31.1 mph N/A   Clear
12:15 PM 71.6 °F - 17.6 °F 13% 29.92 in 10.0 mi West 26.5 mph 33.4 mph N/A   Clear
12:35 PM 71.6 °F - 19.4 °F 14% 29.91 in 10.0 mi North - - N/A   Clear
12:55 PM 71.6 °F - 17.6 °F 13% 29.91 in 10.0 mi WNW 17.3 mph 27.6 mph N/A   Clear
1:15 PM 71.6 °F - 19.4 °F 14% 29.90 in 10.0 mi NW 13.8 mph 21.9 mph N/A   Clear
1:35 PM 71.6 °F - 21.2 °F 15% 29.90 in 10.0 mi West 23.0 mph 29.9 mph N/A   Scattered Clouds
1:55 PM 73.4 °F - 23.0 °F 15% 29.89 in 10.0 mi West 15.0 mph 31.1 mph N/A   Scattered Clouds
2:15 PM 73.4 °F - 21.2 °F 14% 29.89 in 10.0 mi West 23.0 mph 29.9 mph N/A   Scattered Clouds
2:35 PM 73.4 °F - 21.2 °F 14% 29.89 in 10.0 mi North - - N/A   Clear
2:55 PM 73.4 °F - 21.2 °F 14% 29.89 in 10.0 mi WNW 27.6 mph 38.0 mph N/A   Clear
3:15 PM 71.6 °F - 21.2 °F 15% 29.90 in 10.0 mi WNW 25.3 mph 36.8 mph N/A   Clear
3:35 PM 71.6 °F - 21.2 °F 15% 29.91 in 10.0 mi WNW 26.5 mph 39.1 mph N/A   Clear
3:55 PM 69.8 °F - 21.2 °F 16% 29.92 in 10.0 mi North - - N/A   Clear
4:15 PM 69.8 °F - 23.0 °F 17% 29.92 in 10.0 mi West 29.9 mph 40.3 mph N/A   Clear
4:35 PM 69.8 °F - 26.6 °F 20% 29.94 in 10.0 mi WNW 23.0 mph 36.8 mph N/A   Clear
4:55 PM 66.2 °F - 28.4 °F 24% 29.95 in 10.0 mi NW 21.9 mph 35.7 mph N/A   Clear
5:15 PM 64.4 °F - 28.4 °F 26% 29.97 in 10.0 mi NW 24.2 mph 32.2 mph N/A   Clear
5:35 PM 64.4 °F - 26.6 °F 24% 29.98 in 10.0 mi NW 19.6 mph 29.9 mph N/A   Clear
5:55 PM 62.6 °F - 24.8 °F 24% 29.99 in 10.0 mi NW 11.5 mph 21.9 mph N/A   Clear
6:15 PM 62.6 °F - 23.0 °F 22% 30.01 in 10.0 mi NW 10.4 mph 18.4 mph N/A   Clear
6:35 PM 60.8 °F - 23.0 °F 23% 30.03 in 10.0 mi WNW 10.4 mph - N/A   Clear
6:55 PM 59.0 °F - 23.0 °F 25% 30.04 in 10.0 mi NW 10.4 mph - N/A   Clear
7:15 PM 55.4 °F - 23.0 °F 29% 30.03 in 10.0 mi WNW 15.0 mph - N/A   Clear
7:35 PM 55.4 °F - 23.0 °F 29% 30.04 in 10.0 mi WNW 10.4 mph - N/A   Clear
7:55 PM 53.6 °F - 23.0 °F 30% 30.06 in 10.0 mi WNW 11.5 mph - N/A   Clear
8:15 PM 53.6 °F - 24.8 °F 33% 30.06 in 10.0 mi WNW 11.5 mph - N/A   Clear
8:35 PM 53.6 °F - 24.8 °F 33% 30.07 in 10.0 mi West 9.2 mph - N/A   Clear
8:55 PM 51.8 °F - 26.6 °F 38% 30.08 in 10.0 mi West 6.9 mph - N/A   Clear
9:15 PM 50.0 °F - 26.6 °F 40% 30.10 in 10.0 mi West 5.8 mph - N/A   Clear
9:35 PM 48.2 °F - 24.8 °F 40% 30.11 in 10.0 mi North 4.6 mph - N/A   Clear
9:55 PM 44.6 °F - 23.0 °F 43% 30.13 in 10.0 mi Calm Calm - N/A   Clear
10:15 PM 44.6 °F - 23.0 °F 43% 30.13 in 10.0 mi Calm Calm - N/A   Clear
10:35 PM 44.6 °F - 23.0 °F 43% 30.14 in 10.0 mi Calm Calm - N/A   Clear
10:55 PM 44.6 °F 43.1 °F 24.8 °F 46% 30.14 in 10.0 mi NW 3.5 mph - N/A   Clear
11:15 PM 41.0 °F - 21.2 °F 45% 30.14 in 10.0 mi Calm Calm - N/A   Clear
11:35 PM 41.0 °F 37.1 °F 23.0 °F 49% 30.14 in 10.0 mi WNW 5.8 mph - N/A   Clear
11:55 PM 39.2 °F 37.0 °F 23.0 °F 52% 30.14 in 10.0 mi WNW 3.5 mph - N/A   Clear